Location: *
(39.6167°S, 171.5333°W)
Time: 09:09:34
(UTC+00:00)

Gbstr 26 Del rocket - Pass Details

Date: 05 October 2021
Orbit: 492 x 1263 km, 51.8° (Epoch: 21 October)

Event Time Altitude Azimuth Distance (km) Brightness Sun altitude
Exits shadow 16:03:19 - 325° (NW) 2,901 6.0 -10.3°
Reaches altitude 10° 16:04:43 10° 328° (NNW) 2,368 5.6 -10.0°
Maximum altitude 16:09:57 51° 42° (NE) 864 4.0 -9.1°
Drops below altitude 10° 16:14:16 10° 118° (ESE) 1,960 7.1 -8.3°
Sets 16:16:24 0° 123° (ESE) 2,786 8.0 -7.9°
